This demonstration page uses our WeatherBlox Daily Observations layout. Learn more.

38.89511, -77.03637

Hourly Observations for April 3, 2015

Temp ( °F °C ) Dew Point ( °F °C ) Humidity (%) Winds ( mph kmh ) Pressure ( in mb ) Visibility ( mi km ) Precip ( " mm )
12:52 am 00:52 Mostly Cloudy 67 19.4 41 5 39 39 SSW 17 28 29.95 1014 10 16.0934 0 0
1:04 am 01:04 Mostly Cloudy 66 19 41 5 40 40 SSW 18 30 29.94 1014 10 16.0934 0 0
1:52 am 01:52 Mostly Cloudy 67 19.4 42 5.6 41 41 SSW 17 28 29.94 1014 10 16.0934 0 0
2:52 am 02:52 Cloudy 67 19.4 44 6.7 44 44 SSW 22 35 29.91 1013 10 16.0934 0 0
3:52 am 03:52 Cloudy 67 19.4 46 7.8 47 47 SSW 18 30 29.91 1013 10 16.0934 0 0
4:52 am 04:52 Cloudy 66 18.9 48 8.9 52 52 SSW 16 26 29.9 1013 10 16.0934 0 0
5:52 am 05:52 Mostly Cloudy 66 18.9 51 10.6 59 59 SSW 17 28 29.9 1013 10 16.0934 0 0
6:52 am 06:52 Cloudy 65 18.3 52 11.1 63 63 SSW 18 30 29.91 1013 10 16.0934 0 0
7:52 am 07:52 Cloudy 66 18.9 54 12.2 65 65 SSW 12 19 29.92 1013 10 16.0934 0 0
8:07 am 08:07 Cloudy with Light Rain 66 19 54 12 64 64 SSW 13 20 29.94 1014 10 16.0934 0 0.0254
8:52 am 08:52 Cloudy with Light Rain 63 17.2 57 13.9 81 81 SW 12 19 29.94 1014 5 8.0467 0.02 0.508
9:52 am 09:52 Cloudy with Light Rain 63 17.2 58 14.4 84 84 SSW 8 13 29.94 1014 5 8.0467 0.05 1.27
10:48 am 10:48 Cloudy with Light Rain 63 17 55 13 77 77 SSW 13 20 29.91 1013 5 8.0467 0 0
10:52 am 10:52 Cloudy with Light Rain 63 17.2 59 15 87 87 S 7 11 29.92 1013 7 11.26538 0.04 1.016
11:24 am 11:24 Cloudy with Light Rain 61 16 57 14 88 88 S 10 17 29.91 1013 6 9.65604 0 0
11:52 am 11:52 Cloudy with Light Rain 62 16.7 58 14.4 86 86 S 12 19 29.88 1012 6 9.65604 0.01 0.254
12:52 pm 12:52 Cloudy 67 19.4 61 16.1 81 81 SW 7 11 29.86 1011 10 16.0934 0.02 0.508
1:05 pm 13:05 Cloudy with Light Rain 66 19 61 16 83 83 WSW 7 11 29.88 1012 10 16.0934 0 0.0254
1:52 pm 13:52 Cloudy with Light Rain 68 20 61 16.1 78 78 SW 3 6 29.86 1011 8 12.87472 0.01 0.254
2:52 pm 14:52 Cloudy with Light Rain 67 19.4 62 16.7 84 84 Calm 29.84 1011 7 11.26538 0.04 1.016
3:52 pm 15:52 Cloudy 65 18.3 61 16.1 87 87 S 7 11 29.8 1009 10 16.0934 0 0.0254
4:52 pm 16:52 Cloudy 71 21.7 60 15.6 68 68 SW 12 19 29.78 1008 10 16.0934 0 0
5:52 pm 17:52 Cloudy 71 21.7 60 15.6 68 68 SSW 9 15 29.76 1008 10 16.0934 0 0.0254
6:52 pm 18:52 Cloudy 66 18.9 58 14.4 75 75 S 9 15 29.73 1007 10 16.0934 0 0
7:52 pm 19:52 Cloudy 73 22.8 57 13.9 57 57 SW 13 20 29.73 1007 10 16.0934 0 0.0254
8:52 pm 20:52 Cloudy 72 22.2 56 13.3 57 57 SW 10 17 29.72 1006 10 16.0934 0 0
9:52 pm 21:52 Cloudy 67 19.4 56 13.3 68 68 SSW 5 7 29.7 1006 10 16.0934 0 0
10:52 pm 22:52 Cloudy 69 20.6 55 12.8 61 61 SSW 17 28 29.67 1005 10 16.0934 0 0
11:24 pm 23:24 Cloudy 72 22 54 12 53 53 SW 26 43 29.68 1005 10 16.0934 0 0
11:52 pm 23:52 Cloudy with Light Rain 69 20.6 55 12.8 61 61 SW 24 39 29.69 1005 10 16.0934 0 0.0254

Powered by AerisWeather